Home > Weather > Tábor > Past weeks

Flag for Czech Republic Weather for the Past 2 Weeks in Tábor, Czech Republic

Now
33 °F

Passing clouds.


Feels Like: 28 °F
Forecast: 29 / 41 °F
Wind: 5 mph from West

Location: Kocelovice

Current Time: Feb 11, 2016 at 8:12:43 PM

Latest Report: Feb 11, 2016 at 7:00 PM


Visibility: 28 mi

Pressure: 29.76 "Hg

Humidity: 87%

Dew point: 29 °F

Location of TáborLocation

Historic Weather in Tábor — Graph

°F

Tábor Temperature Yesterday

Maximum temperature yesterday: 37 °F (at 5:00 AM)
Minimum temperature yesterday: 33 °F (at 11:00 PM)
Average temperature yesterday: 35 °F

High & Low Weather Summary for the Past Weeks

 TemperatureHumidityPressure
High53 °F (Feb 8, 3:00 PM)100% (Feb 4, 8:00 PM)30.39 "Hg (Feb 4, 8:00 PM)
Low30 °F (Feb 6, 8:00 AM)41% (Jan 30, 6:00 PM)29.23 "Hg (Feb 9, 8:00 PM)
Average41 °F76%29.96 "Hg
* Reported Jan 27 6:00 PM — Feb 11 6:00 PM, Tábor, Weather by CustomWeather, © 2016

Note: Actual official high and low records may vary slightly from our data, if they occured in-between our weather recording intervals... More about our weather records

Advertising

Tábor Weather History for the Previous 24 Hours

 ConditionsComfort  
Time TempWeatherWind HumidityBarometerVisibility
6:00 PM
Thu, Feb 11
34 °FPassing clouds.6 mph82%29.75 "Hg16 mi
5:00 PM36 °FPartly sunny.8 mph74%29.73 "Hg16 mi
4:00 PM38 °FScattered clouds.6 mph70%29.72 "Hg17 mi
3:00 PM38 °FPartly sunny.8 mph65%29.72 "Hg19 mi
2:00 PM38 °FPartly sunny.9 mph64%29.70 "Hg19 mi
1:00 PM40 °FScattered clouds.10 mph64%29.70 "Hg17 mi
12:00 PM38 °FPartly sunny.10 mph69%29.70 "Hg19 mi
11:00 AM36 °FPartly sunny.8 mph79%29.72 "Hg19 mi
10:00 AM35 °FPartly sunny.8 mph81%29.70 "Hg25 mi
9:00 AM34 °FPartly sunny.6 mph85%29.70 "Hg16 mi
8:00 AM33 °FPartly sunny.3 mph89%29.68 "Hg16 mi
7:00 AM33 °FSnow flurries. Low clouds.7 mph92%29.66 "Hg3 mi
5:00 AM33 °FLight snow. Overcast.8 mph88%29.62 "Hg7 mi
4:00 AM34 °FFreezing rain. Overcast.8 mph85%29.60 "Hg12 mi
3:00 AM34 °FChilly.9 mph85%29.59 "Hg12 mi
2:00 AM34 °FChilly.10 mph85%29.58 "Hg12 mi
1:00 AM34 °FChilly.8 mph87%29.56 "Hg12 mi
11:00 PM
Wed, Feb 10
33 °FSnow flurries. Overcast.8 mph93%29.53 "Hg2 mi
9:00 PM33 °FLight snow. Low clouds.8 mph91%29.50 "Hg3 mi
8:00 PM33 °FLight snow. Overcast.6 mph92%29.50 "Hg4 mi
Weather by CustomWeather, © 2016

See weather overviewHow to use our weather pages